TITAN 3C TRANSTAGE DEB, 1642

Orbit data source: Space-Track

TITAN 3C TRANSTAGE DEB, 1642 is space debris in LEO originally from a launch on Fri, 15 Oct 1965 UTC launched from the Air Force Eastern Test Range (AFETR). Debris objects in space refer to the collection of defunct objects orbiting the Earth. Examples of debris include non-operational satellites, rocket bodies, and fragments generated from explosions, collisions, or faulty payload assembly.

Loading next visibility...
Identifier
1642, 1965-082D
Orbit
LEO
Country
Flag of USUS
Related business
Manufacturer
Unknown
Mission
Spacecraft
Bus & Motor
Unknown
Mass
Unknown
Launch date (UTC)
1965-10-15 (60 years ago)
Launch vehicle
Unknown
Launch site
Air Force Eastern Test Range (AFETR)
Object type
Payload
Rocket body
Debris
Shape & HBR
Unknown
Radar Cross Section
2.300 m², Large (>1 m²)

Expand to show TLE details & history
Last TLE update: 1 day ago

TLE from 1 day ago
0 TITAN 3C TRANSTAGE DEB
1 01642U 65082D   25259.72444994  .00000959  00000-0  10750-3 0  9999
2 01642  32.0939  60.6606 0023629 296.5512  63.2717 14.83769981196926
Epoch: 2025-09-16T17:23Z
TLE epoch observation values (Epoch: 2025-09-16T17:23:12.474Z)
Latitude
-0.00003°
Longitude
163.94793°
Altitude
608.681 km
Speed
7.561 km/s
True Right ascension
04h 02m 38s
True Declination
0° 00' 00"
Sunlit
Object was in partial shadow at epoch
Visualization orbit readout
Latitude
Unknown
Longitude
Unknown
Altitude
Unknown
Speed
Unknown
Apparent Right ascension
Unknown
Apparent Declination
Unknown
Sunlit
N/A
Visualization observer readout
Local Sidereal Time
14:33:50
Azimuth
Unknown
Elevation
Unknown
Doppler factor
Unknown
Orbital elements
Apogee altitude
637.623 km
Perigee altitude
604.546 km
Semi-major axis
6,999.222 km
Eccentricity
0.00236
Inclination
32.0939°
RAAN
60.6606°
Arg. of periapsis
296.5512°
True anomaly
63.51386°
Mean anomaly
63.2717°
Eccentric anomaly
63.39275°
Mean motion
3.70654 °/min
Orbital period
97.13 mins
BSTAR
0.0001075
Loading maneuver chart data...
Computing Atmospheric mass density...

Documentation

Showing up to 5 results
|